Погода в Гродеково

Россия / Амурская область     50°07′16″N   127°34′34″E
темп.,
°C
ветер,
м/с
пор.,
м/с
влажн.,
%
обл.,
%
осадки,
мм/ч
давл.,
гПа
погр.,
м
11 мая, вт
вт1100:00+6ю2288100 0.0 101333
03:00+5ююв229098 0.0 101421
06:00+6ю22865 0.0 101578
09:00+12ююв445568 0.0 1014629
12:00+17юв5538100 0.0 10131412
15:00+18юв6634100 0.0 10112060
18:00+17вюв6840100 0.0 1009792
21:00+12юв71560100 0.0 1009460
12 мая, ср
ср1200:00+11юв71566100 0.0 1007533
03:00+10юв81670100 0.0 1005686
06:00+8вюв101986100 3.6 1001924
09:00+11ююв101778100 6.8 9981376
12:00+12ююв91473100 1.3 9961331
15:00+13ю61056100 2.5 9951236
18:00+13ююз6860100 0.7 9951501
21:00+9ююз3683100 1.4 996412
13 мая, чт
чт1300:00+9зюз3785100 0.6 998317
03:00+9з61181100 0.7 999499
06:00+9з61182100 0.0 1002596
09:00+11з696983 0.0 1004747
12:00+17зсз59426 0.0 10051933
15:00+20зсз6102852 0.0 10042846
18:00+20зюз363399 0.0 10041738
21:00+14ююз3346100 0.0 100422
14 мая, пт
пт1400:00+13юз365099 0.0 1005122
03:00+11с2476100 0.0 1003122
06:00+11ююв41074100 0.0 1002328
09:00+16ююз91660100 0.0 9991563
12:00+11зюз81364100 1.9 9991019
15:00+17з1117356 1.9 9972770
18:00+14з715474 0.0 9981985
21:00+11з612505 0.0 999570
15 мая, сб
сб1500:00+9з7126165 0.0 1000963
03:00+9з81367100 0.0 10001252
06:00+8зсз71375100 0.0 10011183
09:00+8сз71275100 0.1 10031082
12:00+9сз71168100 0.0 10041218
15:00+11ссз51365100 0.0 10051326
18:00+13сз31261100 0.0 10051655
21:00+11ссз3867100 0.1 1006218